START_TIME,STEP,MOV.,M15,t_acc.,M20,t_acc.
1979-07-11 08:19:08.270 ,0,0,0.,24.0,0.,24.0
1979-07-11 08:19:32.270 ,0,0,0.,24.0,0.,24.0
1979-07-11 08:19:56.270 ,0,0,0.,24.0,0.,24.0
1979-07-11 08:20:20.270 ,0,0,0.,24.0,0.,24.0
1979-07-11 08:20:44.270 ,0,0,0.,24.0,0.,24.0
1979-07-11 08:21:08.270 ,1,1,0.,24.0,0.,24.0
1979-07-11 08:21:32.270 ,1,0,0.,24.0,0.,24.0
1979-07-11 08:21:56.270 ,1,0,0.,24.0,0.,24.0
1979-07-11 08:22:20.270 ,1,0,0.,24.0,0.,24.0
1979-07-11 08:22:44.270 ,1,0,0.,24.0,0.,24.0
1979-07-11 08:23:08.270 ,1,0,0.,24.0,0.,24.0
1979-07-11 08:23:32.270 ,2,1,0.,24.0,0.,24.0
1979-07-11 08:23:56.270 ,2,0,0.,24.0,0.,24.0
1979-07-11 08:24:20.270 ,2,0,0.,24.0,0.,24.0
1979-07-11 08:24:44.270 ,2,0,0.,24.0,0.,24.0
1979-07-11 08:25:08.270 ,2,0,0.,24.0,0.,24.0
1979-07-11 08:25:32.270 ,2,0,0.,24.0,0.,24.0
1979-07-11 08:26:44.270 ,2,0,0.,24.0,0.,24.0
1979-07-11 08:27:08.270 ,0,0,0.,24.0,0.,24.0
1979-07-11 08:27:32.270 ,0,0,0.,24.0,0.,24.0
1979-07-11 08:27:56.270 ,0,0,0.,24.0,0.,24.0
1979-07-11 08:28:20.270 ,4,1,0.,24.0,0.,24.0
1979-07-11 08:28:44.270 ,4,0,0.,24.0,0.,24.0
1979-07-11 08:29:08.270 ,4,0,0.,24.0,0.,24.0
1979-07-11 08:29:32.270 ,4,0,0.,24.0,0.,24.0
1979-07-11 08:29:56.270 ,4,0,0.,24.0,0.,24.0
1979-07-11 08:30:20.270 ,4,0,0.,24.0,0.,24.0
1979-07-11 08:30:44.270 ,5,1,0.,24.0,0.,24.0
1979-07-11 08:31:08.270 ,5,0,0.,24.0,0.,24.0
1979-07-11 08:31:32.270 ,5,0,0.,24.0,0.,24.0
1979-07-11 08:31:56.270 ,5,0,0.,24.0,0.,24.0
1979-07-11 08:32:20.270 ,5,0,0.,24.0,0.,24.0
1979-07-11 08:32:44.270 ,5,0,0.,24.0,0.,24.0
1979-07-11 08:33:08.270 ,6,1,0.,24.0,0.,24.0
1979-07-11 08:33:32.270 ,6,0,0.,24.0,0.,24.0
1979-07-11 08:33:56.270 ,6,0,0.,24.0,0.,24.0
1979-07-11 08:34:20.270 ,6,0,0.,24.0,0.,24.0
1979-07-11 08:34:44.270 ,6,0,0.,24.0,0.,24.0
1979-07-11 08:35:08.270 ,6,0,0.,24.0,0.,24.0
1979-07-11 08:35:32.270 ,7,1,0.,24.0,0.,24.0
1979-07-11 08:35:56.270 ,7,0,0.,24.0,0.,24.0
1979-07-11 08:36:20.270 ,7,0,0.,24.0,0.,24.0
1979-07-11 08:36:44.270 ,7,0,0.,24.0,0.,24.0
1979-07-11 08:37:08.270 ,7,0,0.,24.0,0.,24.0
1979-07-11 08:37:32.270 ,7,0,0.,24.0,0.,24.0
1979-07-11 08:37:56.270 ,7,1,0.,24.0,0.,24.0
1979-07-11 08:38:20.270 ,7,0,0.,24.0,0.,24.0
1979-07-11 08:38:44.270 ,7,0,0.,24.0,0.,24.0
1979-07-11 08:39:08.270 ,7,0,0.,24.0,0.,24.0
1979-07-11 08:39:32.270 ,7,0,0.,24.0,0.,24.0
1979-07-11 08:39:56.270 ,7,0,0.,24.0,0.,24.0
1979-07-11 08:40:20.270 ,6,1,0.,24.0,0.,24.0
1979-07-11 08:40:44.270 ,6,0,0.,24.0,0.,24.0
1979-07-11 08:41:08.270 ,6,0,0.,24.0,0.,24.0
1979-07-11 08:41:32.270 ,6,0,0.,24.0,0.,24.0
1979-07-11 08:41:56.270 ,6,0,0.,24.0,0.,24.0
1979-07-11 08:42:20.270 ,6,0,0.,24.0,0.,24.0
1979-07-11 08:42:44.270 ,5,1,0.,24.0,0.,24.0
1979-07-11 08:43:08.270 ,5,0,0.,24.0,0.,24.0
1979-07-11 08:43:32.270 ,5,0,0.,24.0,0.,24.0
1979-07-11 08:43:56.270 ,5,0,0.,24.0,0.,24.0
1979-07-11 08:44:20.270 ,5,0,0.,24.0,0.,24.0
1979-07-11 08:44:44.270 ,5,0,0.,24.0,0.,24.0
1979-07-11 08:45:08.270 ,4,1,0.,24.0,0.,24.0
1979-07-11 08:45:32.270 ,4,0,0.,24.0,0.,24.0
1979-07-11 08:45:56.270 ,4,0,0.,24.0,0.,24.0
1979-07-11 08:46:20.270 ,4,0,0.,24.0,0.,24.0
1979-07-11 08:46:44.270 ,4,0,0.,24.0,0.,24.0
1979-07-11 08:47:08.270 ,4,0,0.,24.0,0.,24.0
1979-07-11 08:47:32.270 ,3,1,0.,24.0,0.,24.0
1979-07-11 08:47:56.270 ,3,0,0.,24.0,0.,24.0
1979-07-11 08:48:20.270 ,3,0,0.,24.0,0.,24.0
1979-07-11 08:48:44.270 ,3,0,0.,24.0,0.,24.0
1979-07-11 08:49:08.270 ,3,0,0.,24.0,0.,24.0
1979-07-11 08:49:32.270 ,3,0,0.,24.0,0.,24.0
1979-07-11 08:49:56.270 ,2,1,0.,24.0,0.,24.0
1979-07-11 08:50:20.270 ,2,0,0.,24.0,0.,24.0
1979-07-11 08:50:44.270 ,2,0,0.,24.0,0.,24.0
1979-07-11 08:51:08.270 ,2,0,0.,24.0,0.,24.0
1979-07-11 08:51:32.270 ,2,0,0.,24.0,0.,24.0
1979-07-11 08:51:56.270 ,2,0,0.,24.0,0.,24.0
1979-07-11 08:52:20.270 ,1,1,0.,24.0,0.,24.0
1979-07-11 08:52:44.270 ,1,0,0.,24.0,0.,24.0
1979-07-11 08:53:08.270 ,1,0,0.,24.0,0.,24.0
1979-07-11 08:53:32.270 ,1,0,0.,24.0,0.,24.0
1979-07-11 08:53:56.270 ,1,0,0.,24.0,0.,24.0
1979-07-11 08:54:20.270 ,1,0,0.,24.0,0.,24.0
1979-07-11 08:54:44.270 ,0,1,0.,24.0,0.,24.0
1979-07-11 08:55:08.270 ,0,0,0.,24.0,0.,24.0
1979-07-11 08:55:32.270 ,0,0,0.,24.0,0.,24.0
1979-07-11 08:55:56.270 ,0,0,0.,24.0,0.,24.0
1979-07-11 08:56:20.270 ,0,0,0.,24.0,0.,24.0
1979-07-11 08:56:44.270 ,0,0,0.,24.0,0.,24.0
1979-07-11 08:57:08.270 ,0,1,0.,24.0,0.,24.0
1979-07-11 08:57:32.270 ,0,0,0.,24.0,0.,24.0
1979-07-11 08:57:56.270 ,0,0,0.,24.0,0.,24.0
1979-07-11 08:58:20.270 ,0,0,0.,24.0,0.,24.0
1979-07-11 08:58:44.270 ,0,0,0.,24.0,0.,24.0
1979-07-11 08:59:08.270 ,0,0,0.,24.0,0.,24.0
1979-07-11 08:59:32.270 ,1,1,0.,24.0,0.,24.0
1979-07-11 08:59:56.270 ,1,0,0.,24.0,0.,24.0
1979-07-11 09:00:20.270 ,1,0,0.,24.0,0.,24.0
